Medford, OR

4:53 AM PDT on March 27, 2017 (GMT -0700)
Rogue Valley International-Medford

Weather History for KMFR - November, 2011

Change the Weather History Date:

Friday, November 11, 2011

  Actual Average Record
Temperature  
Mean Temperature 48 °F 46 °F  
Max Temperature 61 °F 55 °F 72 °F (2001)
Min Temperature 34 °F 37 °F 13 °F (1978)
Degree Days  
Heating Degree Days 17 19  
Month to date heating degree days 230 192  
Since 1 July heating degree days 500 552  
Cooling Degree Days 0 0  
Month to date cooling degree days 0 0  
Year to date cooling degree days 783 829  
Moisture  
Dew Point 34 °F    
Average Humidity 61    
Maximum Humidity 92    
Minimum Humidity 29    
Precipitation  
Precipitation 0.00 in 0.10 in 1.06 in (1981)
Month to date precipitation 0.77 0.94  
Year to date precipitation 14.26 12.78  
Snow  
Snow 0.00 in 0.00 in - ()
Month to date snowfall T 0.0  
Since 1 July snowfall T 0.0  
Snow Depth 0.00 in    
Sea Level Pressure  
Sea Level Pressure 29.82 in    
Wind  
Wind Speed 1 mph (SSW)    
Max Wind Speed 6 mph    
Max Gust Speed 7 mph    
Visibility 9 miles    
Events      
T = Trace of Precipitation, MM = Missing Value Source: NWS Daily Summary

Daily Weather History Graph

Daily Weather History Graph

Search for Another Location

Airport or City:

Trip Planner

Search our weather history database for the weather conditions in past years. The results will help you decide how hot, cold, wet, or windy it might be!

Date:

Astronomy

Nov. 11, 2011 Rise Set
Actual Time 6:57 AM PST 4:53 PM PST
Civil Twilight 6:27 AM PST 5:23 PM PST
Nautical Twilight 5:53 AM PST 5:57 PM PST
Astronomical Twilight 5:20 AM PST 6:30 PM PST
Moon 5:24 PM PST (11/11) 7:52 AM PST (11/11)
Length of Visible Light 10h 56m
Length of Day
9h 56m
Full, 99% of the Moon is Illuminated
Nov 11
Full
Nov 18
Last Quarter
Nov 24
New
Dec 2
First Quarter
Dec 10
Full

Hourly Weather History & Observations

Time (PST) Temp. Windchill Dew Point Humidity Pressure Visibility Wind Dir Wind Speed Gust Speed Precip Events Conditions
12:53 AM 39.9 °F - 35.1 °F 83% 29.94 in 10.0 mi Calm Calm - N/A   Clear
1:53 AM 39.9 °F - 35.1 °F 83% 29.92 in 7.0 mi Calm Calm - N/A   Clear
2:53 AM 39.9 °F - 35.1 °F 83% 29.91 in 7.0 mi Calm Calm - N/A   Clear
3:53 AM 37.4 °F 34.9 °F 33.8 °F 87% 29.89 in 8.0 mi South 3.5 mph - N/A   Clear
4:53 AM 36.0 °F - 33.1 °F 89% 29.87 in 7.0 mi Calm Calm - N/A   Clear
5:53 AM 35.1 °F - 33.1 °F 92% 29.86 in 6.0 mi Calm Calm - N/A   Clear
6:53 AM 35.6 °F - 33.8 °F 93% 29.84 in 7.0 mi Calm Calm - N/A   Clear
7:53 AM 35.6 °F - 32.0 °F 87% 29.84 in 10.0 mi Calm Calm - N/A   Clear
8:53 AM 37.0 °F - 33.1 °F 86% 29.86 in 10.0 mi Calm Calm - N/A   Scattered Clouds
9:53 AM 39.9 °F - 34.0 °F 79% 29.86 in 6.0 mi Calm Calm - N/A   Haze
10:53 AM 46.4 °F - 33.8 °F 62% 29.85 in 10.0 mi Calm Calm - N/A   Clear
11:53 AM 52.0 °F - 33.1 °F 49% 29.82 in 10.0 mi Calm Calm - N/A   Clear
12:53 PM 55.9 °F - 30.9 °F 39% 29.78 in 10.0 mi Calm Calm - N/A   Clear
1:53 PM 59.0 °F - 28.0 °F 31% 29.75 in 10.0 mi Calm Calm - N/A   Scattered Clouds
2:53 PM 61.0 °F - 28.0 °F 29% 29.72 in 10.0 mi Calm Calm - N/A   Clear
3:53 PM 60.1 °F - 32.0 °F 35% 29.73 in 9.0 mi Calm Calm - N/A   Mostly Cloudy
4:53 PM 57.9 °F - 33.1 °F 39% 29.74 in 10.0 mi Calm Calm - N/A   Overcast
5:53 PM 53.1 °F - 36.0 °F 52% 29.75 in 9.0 mi West 4.6 mph - N/A   Scattered Clouds
6:53 PM 53.1 °F - 33.1 °F 47% 29.77 in 10.0 mi Calm Calm - N/A   Overcast
7:53 PM 52.0 °F - 35.1 °F 53% 29.77 in 10.0 mi SSE 3.5 mph - N/A   Overcast
8:53 PM 51.1 °F - 36.0 °F 56% 29.79 in 10.0 mi Calm Calm - N/A   Overcast
9:53 PM 50.0 °F - 35.1 °F 57% 29.77 in 10.0 mi Calm Calm - N/A   Mostly Cloudy
10:53 PM 46.9 °F - 36.0 °F 66% 29.80 in 10.0 mi Calm Calm - N/A   Overcast
11:53 PM 46.9 °F - 36.0 °F 66% 29.82 in 10.0 mi Calm Calm - N/A   Overcast